| time (UTC) | temp F | wind direction | speed MPH | gust MPH | rain 1hr in | rain 24hr in | rain mn in | humidity % | barometer mb |
| 20260831200505 | 71 | 0 | 2.0 | 5.0 | 0.00 | 0.00 | 0.00 | 62 | 1014.6 |
| 20260831200010 | 71 | 338 | 1.0 | 6.0 | 0.00 | 0.00 | 0.00 | 63 | 1014.7 |
| 20260831195509 | 70 | 315 | 1.0 | 4.0 | 0.00 | 0.00 | 0.00 | 64 | 1014.7 |
| 20260831195010 | 70 | 315 | 1.0 | 4.0 | 0.00 | 0.00 | 0.00 | 64 | 1014.8 |
| 20260831194510 | 70 | 135 | 1.0 | 2.0 | 0.00 | 0.00 | 0.00 | 65 | 1014.9 |
| 20260831194010 | 70 | 45 | 1.0 | 2.0 | 0.00 | 0.00 | 0.00 | 64 | 1015.0 |
| 20260831193510 | 70 | 45 | 1.0 | 3.0 | 0.00 | 0.00 | 0.00 | 64 | 1015.1 |
| 20260831193005 | 70 | 113 | 1.0 | 3.0 | 0.00 | 0.00 | 0.00 | 65 | 1015.2 |
| 20260831192505 | 69 | 135 | 1.0 | 3.0 | 0.00 | 0.00 | 0.00 | 65 | 1015.2 |
| 20260831192010 | 70 | 113 | 1.0 | 4.0 | 0.00 | 0.00 | 0.00 | 64 | 1015.3 |
| 20260831191550 | 70 | 135 | 1.0 | 3.0 | 0.00 | 0.00 | 0.00 | 64 | 1015.3 |
| 20260831191009 | 70 | 113 | 1.0 | 3.0 | 0.00 | 0.00 | 0.00 | 64 | 1015.4 |
| 20260831190510 | 70 | 135 | 1.0 | 3.0 | 0.00 | 0.00 | 0.00 | 63 | 1015.2 |
| 20260831190010 | 70 | 135 | 1.0 | 3.0 | 0.00 | 0.00 | 0.00 | 61 | 1015.4 |
| 20260831185509 | 70 | 225 | 1.0 | 2.0 | 0.00 | 0.00 | 0.00 | 62 | 1015.2 |
| 20260831185010 | 70 | 45 | 1.0 | 3.0 | 0.00 | 0.00 | 0.00 | 63 | 1015.3 |
| 20260831184509 | 69 | 135 | 1.0 | 2.0 | 0.00 | 0.00 | 0.00 | 64 | 1015.4 |
| 20260831184010 | 68 | 0.0 | 2.0 | 0.00 | 0.00 | 0.00 | 64 | 1015.5 | |
| 20260831183510 | 68 | 113 | 1.0 | 2.0 | 0.00 | 0.00 | 0.00 | 65 | 1015.5 |
| 20260831183010 | 67 | 45 | 1.0 | 2.0 | 0.00 | 0.00 | 0.00 | 66 | 1015.4 |
| 20260831182510 | 67 | 0.0 | 2.0 | 0.00 | 0.00 | 0.00 | 67 | 1015.4 | |
| 20260831182010 | 67 | 0.0 | 2.0 | 0.00 | 0.00 | 0.00 | 67 | 1015.4 | |
| 20260831181510 | 67 | 45 | 1.0 | 2.0 | 0.00 | 0.00 | 0.00 | 67 | 1015.4 |
| 20260831181024 | 67 | 0.0 | 2.0 | 0.00 | 0.00 | 0.00 | 67 | 1015.4 | |
| 20260831180529 | 66 | 0.0 | 1.0 | 0.00 | 0.00 | 0.00 | 68 | 1015.5 | |
| 20260831180009 | 66 | 0.0 | 2.0 | 0.00 | 0.00 | 0.00 | 69 | 1015.4 | |
| 20260831175505 | 65 | 338 | 1.0 | 2.0 | 0.00 | 0.00 | 0.00 | 69 | 1015.5 |
| 20260831175009 | 65 | 225 | 1.0 | 3.0 | 0.00 | 0.00 | 0.00 | 69 | 1015.4 |
| 20260831174510 | 65 | 315 | 1.0 | 2.0 | 0.00 | 0.00 | 0.00 | 69 | 1015.5 |
| 20260831174009 | 65 | 270 | 1.0 | 2.0 | 0.00 | 0.00 | 0.00 | 70 | 1015.5 |
| 20260831173510 | 64 | 0.0 | 1.0 | 0.00 | 0.00 | 0.00 | 71 | 1015.5 | |
| 20260831173004 | 64 | 23 | 1.0 | 3.0 | 0.00 | 0.00 | 0.00 | 71 | 1015.6 |
| 20260831172505 | 64 | 0.0 | 1.0 | 0.00 | 0.00 | 0.00 | 72 | 1015.5 | |
| 20260831172004 | 64 | 0.0 | 2.0 | 0.00 | 0.00 | 0.00 | 72 | 1015.6 | |
| 20260831171509 | 63 | 0 | 1.0 | 2.0 | 0.00 | 0.00 | 0.00 | 72 | 1015.5 |
| 20260831171029 | 63 | 45 | 1.0 | 2.0 | 0.00 | 0.00 | 0.00 | 72 | 1015.4 |
| 20260831170509 | 63 | 0 | 1.0 | 2.0 | 0.00 | 0.00 | 0.00 | 73 | 1015.4 |
| 20260831170025 | 63 | 225 | 1.0 | 2.0 | 0.00 | 0.00 | 0.00 | 73 | 1015.4 |
| 20260831165505 | 63 | 135 | 1.0 | 2.0 | 0.00 | 0.00 | 0.00 | 74 | 1015.2 |
| 20260831165005 | 63 | 270 | 1.0 | 2.0 | 0.00 | 0.00 | 0.00 | 75 | 1015.2 |
| 20260831164509 | 62 | 158 | 1.0 | 2.0 | 0.00 | 0.00 | 0.00 | 76 | 1015.1 |
| 20260831164009 | 62 | 270 | 1.0 | 2.0 | 0.00 | 0.00 | 0.00 | 77 | 1015.1 |
| 20260831163504 | 61 | 0.0 | 1.0 | 0.00 | 0.00 | 0.00 | 78 | 1015.2 | |
| 20260831163004 | 61 | 0.0 | 1.0 | 0.00 | 0.00 | 0.00 | 79 | 1015.1 | |
| 20260831162507 | 60 | 0.0 | 1.0 | 0.00 | 0.00 | 0.00 | 81 | 1015.0 | |
| 20260831162004 | 60 | 0.0 | 1.0 | 0.00 | 0.00 | 0.00 | 81 | 1015.0 | |
| 20260831161530 | 60 | 0.0 | 1.0 | 0.00 | 0.00 | 0.00 | 83 | 1015.0 | |
| 20260831161009 | 60 | 315 | 1.0 | 2.0 | 0.00 | 0.00 | 0.00 | 84 | 1014.9 |
| 20260831160509 | 59 | 0.0 | 1.0 | 0.00 | 0.00 | 0.00 | 86 | 1014.9 | |
| 20260831160004 | 59 | 0.0 | 1.0 | 0.00 | 0.00 | 0.00 | 86 | 1014.9 | |
| 20260831155509 | 59 | 315 | 1.0 | 2.0 | 0.00 | 0.00 | 0.00 | 87 | 1015.0 |
| 20260831155004 | 58 | 0.0 | 1.0 | 0.00 | 0.00 | 0.00 | 88 | 1014.9 | |
| 20260831154524 | 58 | 0.0 | 2.0 | 0.00 | 0.00 | 0.00 | 88 | 1015.0 | |
| 20260831154004 | 58 | 248 | 1.0 | 2.0 | 0.00 | 0.00 | 0.00 | 88 | 1014.9 |
| 20260831153504 | 58 | 0.0 | 1.0 | 0.00 | 0.00 | 0.00 | 89 | 1014.9 | |
| 20260831153004 | 57 | 315 | 1.0 | 2.0 | 0.00 | 0.00 | 0.00 | 89 | 1014.9 |
| 20260831152504 | 57 | 0.0 | 2.0 | 0.00 | 0.00 | 0.00 | 89 | 1014.8 | |
| 20260831152004 | 57 | 0.0 | 1.0 | 0.00 | 0.00 | 0.00 | 89 | 1015.0 | |
| 20260831151504 | 57 | 0.0 | 1.0 | 0.00 | 0.00 | 0.00 | 89 | 1015.0 | |
| 20260831151024 | 56 | 0.0 | 2.0 | 0.00 | 0.00 | 0.00 | 89 | 1014.9 | |
| 20260831150529 | 56 | 0.0 | 1.0 | 0.00 | 0.00 | 0.00 | 89 | 1014.9 | |
| 20260831150004 | 56 | 0.0 | 1.0 | 0.00 | 0.00 | 0.00 | 89 | 1014.8 | |
| 20260831145509 | 55 | 0.0 | 1.0 | 0.00 | 0.00 | 0.00 | 88 | 1014.8 | |
| 20260831145024 | 55 | 0.0 | 1.0 | 0.00 | 0.00 | 0.00 | 88 | 1014.7 | |
| 20260831144504 | 55 | 0.0 | 1.0 | 0.00 | 0.00 | 0.00 | 88 | 1014.6 | |
| 20260831144004 | 55 | 0.0 | 1.0 | 0.00 | 0.00 | 0.00 | 87 | 1014.6 | |
| 20260831143504 | 55 | 0.0 | 1.0 | 0.00 | 0.00 | 0.00 | 87 | 1014.5 | |
| 20260831143004 | 55 | 0.0 | 1.0 | 0.00 | 0.00 | 0.00 | 86 | 1014.5 | |
| 20260831142504 | 55 | 0.0 | 1.0 | 0.00 | 0.00 | 0.00 | 86 | 1014.3 | |
| 20260831142004 | 55 | 0.0 | 1.0 | 0.00 | 0.00 | 0.00 | 86 | 1014.3 | |
| 20260831141504 | 55 | 0.0 | 1.0 | 0.00 | 0.00 | 0.00 | 85 | 1014.2 | |
| 20260831141005 | 55 | 0.0 | 1.0 | 0.00 | 0.00 | 0.00 | 85 | 1014.2 | |
| 20260831140524 | 55 | 0.0 | 1.0 | 0.00 | 0.00 | 0.00 | 85 | 1014.1 | |
| 20260831140004 | 55 | 0.0 | 1.0 | 0.00 | 0.00 | 0.00 | 84 | 1014.3 | |
| 20260831135504 | 55 | 0.0 | 1.0 | 0.00 | 0.00 | 0.00 | 84 | 1014.1 | |
| 20260831135004 | 55 | 0.0 | 1.0 | 0.00 | 0.00 | 0.00 | 84 | 1014.0 | |
| 20260831134504 | 55 | 0.0 | 1.0 | 0.00 | 0.00 | 0.00 | 84 | 1014.0 | |
| 20260831134004 | 56 | 0.0 | 1.0 | 0.00 | 0.00 | 0.00 | 84 | 1014.0 | |
| 20260831133504 | 56 | 0.0 | 1.0 | 0.00 | 0.00 | 0.00 | 83 | 1013.9 | |
| 20260831133004 | 56 | 0.0 | 1.0 | 0.00 | 0.00 | 0.00 | 83 | 1013.8 | |
| 20260831132504 | 56 | 0.0 | 1.0 | 0.00 | 0.00 | 0.00 | 83 | 1013.9 | |
| 20260831132024 | 56 | 0.0 | 1.0 | 0.00 | 0.00 | 0.00 | 83 | 1013.8 | |
| 20260831131504 | 56 | 0.0 | 1.0 | 0.00 | 0.00 | 0.00 | 83 | 1013.7 | |
| 20260831131009 | 56 | 0.0 | 1.0 | 0.00 | 0.00 | 0.00 | 83 | 1013.7 | |
| 20260831130504 | 57 | 0.0 | 2.0 | 0.00 | 0.00 | 0.00 | 83 | 1013.7 | |
| 20260831130004 | 57 | 0.0 | 1.0 | 0.00 | 0.00 | 0.00 | 82 | 1013.6 | |
| 20260831125504 | 57 | 0.0 | 1.0 | 0.00 | 0.00 | 0.00 | 82 | 1013.6 | |
| 20260831125004 | 57 | 315 | 1.0 | 2.0 | 0.00 | 0.00 | 0.00 | 82 | 1013.7 |
| 20260831124509 | 57 | 0.0 | 2.0 | 0.00 | 0.00 | 0.00 | 82 | 1013.6 | |
| 20260831124004 | 57 | 315 | 1.0 | 3.0 | 0.00 | 0.00 | 0.00 | 82 | 1013.6 |
| 20260831123504 | 58 | 0.0 | 1.0 | 0.00 | 0.00 | 0.00 | 82 | 1013.5 | |
| 20260831123009 | 58 | 270 | 1.0 | 2.0 | 0.00 | 0.00 | 0.00 | 82 | 1013.3 |
| 20260831122504 | 58 | 248 | 1.0 | 2.0 | 0.00 | 0.00 | 0.00 | 82 | 1013.3 |
| 20260831122004 | 58 | 248 | 1.0 | 3.0 | 0.00 | 0.00 | 0.00 | 82 | 1013.3 |
| 20260831121529 | 58 | 270 | 1.0 | 3.0 | 0.00 | 0.00 | 0.00 | 83 | 1013.2 |
| 20260831121028 | 58 | 248 | 2.0 | 4.0 | 0.00 | 0.00 | 0.00 | 83 | 1013.1 |
| 20260831120504 | 58 | 248 | 1.0 | 2.0 | 0.00 | 0.00 | 0.00 | 84 | 1013.1 |
| 20260831120004 | 59 | 0.0 | 3.0 | 0.00 | 0.00 | 0.00 | 85 | 1013.1 | |
| 20260831115504 | 59 | 0.0 | 2.0 | 0.00 | 0.00 | 0.00 | 86 | 1013.2 | |
| 20260831115024 | 59 | 270 | 1.0 | 3.0 | 0.00 | 0.00 | 0.00 | 86 | 1013.0 |
| 20260831114509 | 59 | 248 | 1.0 | 3.0 | 0.00 | 0.00 | 0.00 | 87 | 1013.0 |
| 20260831114029 | 59 | 293 | 1.0 | 2.0 | 0.00 | 0.00 | 0.00 | 87 | 1013.0 |
| 20260831113529 | 59 | 0.0 | 2.0 | 0.00 | 0.00 | 0.00 | 88 | 1012.9 | |
| 20260831113024 | 59 | 0.0 | 2.0 | 0.00 | 0.00 | 0.00 | 88 | 1012.9 | |
| 20260831112524 | 59 | 0.0 | 2.0 | 0.00 | 0.00 | 0.00 | 88 | 1012.9 | |
| 20260831112024 | 59 | 0.0 | 1.0 | 0.00 | 0.00 | 0.00 | 89 | 1012.9 | |
| 20260831111503 | 59 | 0.0 | 1.0 | 0.00 | 0.00 | 0.00 | 89 | 1013.0 | |
| 20260831111004 | 59 | 0.0 | 1.0 | 0.00 | 0.00 | 0.00 | 89 | 1013.0 | |
| 20260831110503 | 59 | 0.0 | 2.0 | 0.00 | 0.00 | 0.00 | 89 | 1012.9 | |
| 20260831110008 | 59 | 0.0 | 2.0 | 0.00 | 0.00 | 0.00 | 89 | 1012.9 | |
| 20260831105504 | 59 | 0.0 | 2.0 | 0.00 | 0.00 | 0.00 | 89 | 1012.9 | |
| 20260831105009 | 59 | 0.0 | 2.0 | 0.00 | 0.00 | 0.00 | 90 | 1012.8 | |
| 20260831104509 | 59 | 0.0 | 1.0 | 0.00 | 0.00 | 0.00 | 90 | 1012.8 | |
| 20260831104008 | 59 | 0.0 | 2.0 | 0.00 | 0.00 | 0.00 | 90 | 1012.7 | |
| 20260831103529 | 58 | 0.0 | 2.0 | 0.00 | 0.00 | 0.00 | 90 | 1012.7 | |
| 20260831103024 | 58 | 0.0 | 1.0 | 0.00 | 0.00 | 0.00 | 90 | 1012.6 | |
| 20260831102503 | 58 | 0.0 | 2.0 | 0.00 | 0.00 | 0.00 | 90 | 1012.7 | |
| 20260831102009 | 58 | 0.0 | 1.0 | 0.00 | 0.00 | 0.00 | 90 | 1012.7 | |
| 20260831101503 | 58 | 0.0 | 1.0 | 0.00 | 0.00 | 0.00 | 90 | 1012.7 | |
| 20260831101008 | 58 | 0.0 | 2.0 | 0.00 | 0.00 | 0.00 | 90 | 1012.7 | |
| 20260831100503 | 58 | 0.0 | 1.0 | 0.00 | 0.00 | 0.00 | 89 | 1012.6 | |
| 20260831100009 | 58 | 0.0 | 1.0 | 0.00 | 0.00 | 0.00 | 89 | 1012.7 | |
| 20260831095504 | 58 | 0.0 | 1.0 | 0.00 | 0.00 | 0.00 | 89 | 1012.6 | |
| 20260831095023 | 58 | 0.0 | 1.0 | 0.00 | 0.00 | 0.00 | 89 | 1012.7 | |
| 20260831094549 | 58 | 0.0 | 1.0 | 0.00 | 0.00 | 0.00 | 89 | 1012.7 | |
| 20260831094008 | 58 | 0.0 | 1.0 | 0.00 | 0.00 | 0.00 | 89 | 1012.7 | |
| 20260831093508 | 58 | 0.0 | 1.0 | 0.00 | 0.00 | 0.00 | 89 | 1012.7 | |
| 20260831093023 | 58 | 0.0 | 1.0 | 0.00 | 0.00 | 0.00 | 89 | 1012.7 | |
| 20260831092503 | 58 | 0.0 | 1.0 | 0.00 | 0.00 | 0.00 | 89 | 1012.8 | |
| 20260831092008 | 58 | 0.0 | 0.0 | 0.00 | 0.00 | 0.00 | 89 | 1012.7 | |
| 20260831091508 | 58 | 0.0 | 1.0 | 0.00 | 0.00 | 0.00 | 89 | 1012.8 | |
| 20260831091003 | 58 | 0.0 | 1.0 | 0.00 | 0.00 | 0.00 | 89 | 1012.7 | |
| 20260831090503 | 58 | 0.0 | 1.0 | 0.00 | 0.00 | 0.00 | 89 | 1012.8 | |
| 20260831090004 | 58 | 0.0 | 1.0 | 0.00 | 0.00 | 0.00 | 89 | 1012.8 | |
| 20260831085508 | 58 | 0.0 | 1.0 | 0.00 | 0.00 | 0.00 | 89 | 1012.9 | |
| 20260831085008 | 58 | 0.0 | 1.0 | 0.00 | 0.00 | 0.00 | 89 | 1012.8 | |
| 20260831084509 | 58 | 0.0 | 1.0 | 0.00 | 0.00 | 0.00 | 89 | 1012.8 | |
| 20260831084003 | 58 | 0.0 | 1.0 | 0.00 | 0.00 | 0.00 | 88 | 1012.8 | |
| 20260831083503 | 58 | 0.0 | 1.0 | 0.00 | 0.00 | 0.00 | 88 | 1012.8 | |
| 20260831083003 | 58 | 0.0 | 1.0 | 0.00 | 0.00 | 0.00 | 88 | 1012.7 | |
| 20260831082508 | 58 | 0.0 | 1.0 | 0.00 | 0.00 | 0.00 | 88 | 1012.8 | |
| 20260831082003 | 58 | 0.0 | 1.0 | 0.00 | 0.00 | 0.00 | 88 | 1013.0 | |
| 20260831081529 | 58 | 0.0 | 1.0 | 0.00 | 0.00 | 0.00 | 88 | 1013.1 | |
| 20260831081008 | 58 | 0.0 | 1.0 | 0.00 | 0.00 | 0.00 | 88 | 1013.0 | |
| 20260831080509 | 58 | 0.0 | 1.0 | 0.00 | 0.00 | 0.00 | 88 | 1013.1 | |
| 20260831080003 | 58 | 0.0 | 1.0 | 0.00 | 0.00 | 0.00 | 88 | 1013.1 | |
| 20260831075509 | 58 | 0.0 | 1.0 | 0.00 | 0.00 | 0.00 | 87 | 1013.1 | |
| 20260831075008 | 57 | 0.0 | 1.0 | 0.00 | 0.00 | 0.00 | 87 | 1013.1 | |
| 20260831074503 | 57 | 0.0 | 1.0 | 0.00 | 0.00 | 0.00 | 87 | 1013.1 | |
| 20260831074003 | 57 | 0.0 | 1.0 | 0.00 | 0.00 | 0.00 | 86 | 1013.2 | |
| 20260831073508 | 58 | 0.0 | 1.0 | 0.00 | 0.00 | 0.00 | 86 | 1013.1 | |
| 20260831073008 | 58 | 0.0 | 1.0 | 0.00 | 0.00 | 0.00 | 86 | 1013.1 | |
| 20260831072543 | 58 | 0.0 | 1.0 | 0.00 | 0.00 | 0.00 | 86 | 1013.1 | |
| 20260831072023 | 58 | 0.0 | 1.0 | 0.00 | 0.00 | 0.00 | 86 | 1013.0 | |
| 20260831071503 | 58 | 0.0 | 1.0 | 0.00 | 0.00 | 0.00 | 86 | 1013.1 | |
| 20260831071008 | 58 | 0.0 | 1.0 | 0.00 | 0.00 | 0.00 | 86 | 1013.1 | |
| 20260831070503 | 58 | 0.0 | 1.0 | 0.00 | 0.00 | 0.00 | 86 | 1013.1 | |
| 20260831070005 | 58 | 0.0 | 1.0 | 0.00 | 0.00 | 0.00 | 86 | 1013.0 | |
| 20260831065503 | 59 | 0.0 | 1.0 | 0.00 | 0.00 | 0.00 | 85 | 1013.2 | |
| 20260831065048 | 59 | 0.0 | 1.0 | 0.00 | 0.00 | 0.00 | 85 | 1013.0 | |
| 20260831064503 | 59 | 0.0 | 1.0 | 0.00 | 0.00 | 0.00 | 85 | 1013.1 | |
| 20260831064008 | 59 | 0.0 | 2.0 | 0.00 | 0.00 | 0.00 | 85 | 1013.1 | |
| 20260831063503 | 59 | 0.0 | 1.0 | 0.00 | 0.00 | 0.00 | 85 | 1013.2 | |
| 20260831063003 | 59 | 0.0 | 1.0 | 0.00 | 0.00 | 0.00 | 85 | 1013.2 | |
| 20260831062509 | 59 | 0.0 | 1.0 | 0.00 | 0.00 | 0.00 | 84 | 1013.2 | |
| 20260831062008 | 59 | 0.0 | 1.0 | 0.00 | 0.00 | 0.00 | 84 | 1013.2 | |
| 20260831061505 | 59 | 0.0 | 1.0 | 0.00 | 0.00 | 0.00 | 83 | 1013.3 | |
| 20260831061005 | 59 | 0.0 | 1.0 | 0.00 | 0.00 | 0.00 | 83 | 1013.2 | |
| 20260831060510 | 59 | 0.0 | 1.0 | 0.00 | 0.00 | 0.00 | 83 | 1013.2 | |
| 20260831060003 | 59 | 0.0 | 1.0 | 0.00 | 0.00 | 0.00 | 82 | 1013.3 | |
| 20260831055525 | 59 | 0.0 | 1.0 | 0.00 | 0.00 | 0.00 | 82 | 1013.3 | |
| 20260831055005 | 59 | 0.0 | 1.0 | 0.00 | 0.00 | 0.00 | 81 | 1013.3 | |
| 20260831054510 | 59 | 0.0 | 2.0 | 0.00 | 0.00 | 0.00 | 81 | 1013.3 | |
| 20260831054005 | 59 | 0.0 | 1.0 | 0.00 | 0.00 | 0.00 | 81 | 1013.3 | |
| 20260831053505 | 59 | 0.0 | 1.0 | 0.00 | 0.00 | 0.00 | 80 | 1013.3 | |
| 20260831053006 | 59 | 0.0 | 2.0 | 0.00 | 0.00 | 0.00 | 79 | 1013.3 | |
| 20260831052505 | 60 | 0.0 | 1.0 | 0.00 | 0.00 | 0.00 | 79 | 1013.2 | |
| 20260831052005 | 60 | 0.0 | 1.0 | 0.00 | 0.00 | 0.00 | 79 | 1013.3 | |
| 20260831051509 | 60 | 0.0 | 1.0 | 0.00 | 0.00 | 0.00 | 79 | 1013.2 | |
| 20260831051009 | 60 | 0.0 | 1.0 | 0.00 | 0.00 | 0.00 | 79 | 1013.2 | |
| 20260831050505 | 60 | 0.0 | 2.0 | 0.00 | 0.00 | 0.00 | 79 | 1013.3 | |
| 20260831050025 | 60 | 0.0 | 1.0 | 0.00 | 0.00 | 0.00 | 79 | 1013.2 | |
| 20260831045505 | 60 | 0.0 | 1.0 | 0.00 | 0.00 | 0.00 | 78 | 1013.2 | |
| 20260831045010 | 61 | 0.0 | 2.0 | 0.00 | 0.00 | 0.00 | 78 | 1013.2 | |
| 20260831044509 | 61 | 23 | 1.0 | 2.0 | 0.00 | 0.00 | 0.00 | 78 | 1013.1 |
| 20260831044005 | 61 | 0.0 | 2.0 | 0.00 | 0.00 | 0.00 | 77 | 1013.1 | |
| 20260831043525 | 61 | 23 | 1.0 | 2.0 | 0.00 | 0.00 | 0.00 | 76 | 1013.1 |
| 20260831043005 | 61 | 0 | 1.0 | 2.0 | 0.00 | 0.00 | 0.00 | 76 | 1013.1 |
| 20260831042505 | 61 | 45 | 1.0 | 2.0 | 0.00 | 0.00 | 0.00 | 76 | 1013.1 |
| 20260831042005 | 62 | 45 | 1.0 | 2.0 | 0.00 | 0.00 | 0.00 | 76 | 1013.1 |
| 20260831041504 | 62 | 23 | 1.0 | 2.0 | 0.00 | 0.00 | 0.00 | 76 | 1013.0 |
| 20260831041010 | 62 | 23 | 1.0 | 2.0 | 0.00 | 0.00 | 0.00 | 76 | 1012.9 |
| 20260831040505 | 62 | 23 | 1.0 | 3.0 | 0.00 | 0.00 | 0.00 | 76 | 1012.9 |
| 20260831040004 | 62 | 0 | 1.0 | 4.0 | 0.00 | 0.00 | 0.00 | 75 | 1012.7 |
| 20260831035524 | 62 | 23 | 1.0 | 4.0 | 0.00 | 0.00 | 0.00 | 75 | 1012.7 |
| 20260831035004 | 62 | 45 | 1.0 | 3.0 | 0.00 | 0.00 | 0.00 | 74 | 1012.7 |
| 20260831034504 | 63 | 23 | 1.0 | 3.0 | 0.00 | 0.00 | 0.00 | 73 | 1012.5 |
| 20260831034004 | 63 | 23 | 1.0 | 3.0 | 0.00 | 0.00 | 0.00 | 73 | 1012.5 |
| 20260831033505 | 63 | 23 | 1.0 | 3.0 | 0.00 | 0.00 | 0.00 | 73 | 1012.5 |
| 20260831033025 | 63 | 23 | 1.0 | 3.0 | 0.00 | 0.00 | 0.00 | 74 | 1012.4 |
| 20260831032505 | 63 | 23 | 1.0 | 2.0 | 0.00 | 0.00 | 0.00 | 74 | 1012.3 |
| 20260831032005 | 64 | 0.0 | 2.0 | 0.00 | 0.00 | 0.00 | 75 | 1012.3 | |
| 20260831031505 | 64 | 0.0 | 2.0 | 0.00 | 0.00 | 0.00 | 75 | 1012.2 | |
| 20260831031005 | 64 | 0.0 | 2.0 | 0.00 | 0.00 | 0.00 | 74 | 1012.3 | |
| 20260831030504 | 64 | 0.0 | 1.0 | 0.00 | 0.00 | 0.00 | 74 | 1012.1 | |
| 20260831030005 | 64 | 0.0 | 2.0 | 0.00 | 0.00 | 0.00 | 74 | 1012.1 | |
| 20260831025545 | 65 | 0.0 | 2.0 | 0.00 | 0.00 | 0.00 | 73 | 1012.2 | |
| 20260831025005 | 65 | 23 | 1.0 | 2.0 | 0.00 | 0.00 | 0.00 | 73 | 1012.1 |
| 20260831024504 | 65 | 45 | 1.0 | 2.0 | 0.00 | 0.00 | 0.00 | 73 | 1012.1 |
| 20260831024007 | 65 | 0.0 | 1.0 | 0.00 | 0.00 | 0.00 | 72 | 1012.0 | |
| 20260831023529 | 65 | 23 | 1.0 | 2.0 | 0.00 | 0.00 | 0.00 | 72 | 1012.1 |
| 20260831023004 | 66 | 23 | 1.0 | 3.0 | 0.00 | 0.00 | 0.00 | 72 | 1012.1 |
| 20260831022504 | 66 | 23 | 1.0 | 3.0 | 0.00 | 0.00 | 0.00 | 71 | 1012.0 |
| 20260831022004 | 66 | 23 | 1.0 | 4.0 | 0.00 | 0.00 | 0.00 | 70 | 1011.9 |
| 20260831021505 | 66 | 45 | 2.0 | 4.0 | 0.00 | 0.00 | 0.00 | 70 | 1011.9 |
| 20260831021004 | 67 | 45 | 2.0 | 4.0 | 0.00 | 0.00 | 0.00 | 70 | 1011.9 |
| 20260831020504 | 67 | 23 | 2.0 | 5.0 | 0.00 | 0.00 | 0.00 | 69 | 1011.9 |
| 20260831020005 | 67 | 0 | 2.0 | 6.0 | 0.00 | 0.00 | 0.00 | 70 | 1012.0 |
| 20260831015524 | 68 | 23 | 2.0 | 5.0 | 0.00 | 0.00 | 0.00 | 72 | 1011.8 |
| 20260831015004 | 68 | 23 | 1.0 | 4.0 | 0.00 | 0.00 | 0.00 | 74 | 1011.9 |
| 20260831014505 | 68 | 23 | 2.0 | 4.0 | 0.00 | 0.00 | 0.00 | 75 | 1011.8 |
| 20260831014004 | 68 | 23 | 2.0 | 6.0 | 0.00 | 0.00 | 0.00 | 75 | 1011.9 |
| 20260831013504 | 68 | 23 | 2.0 | 6.0 | 0.00 | 0.00 | 0.00 | 74 | 1011.8 |
| 20260831013009 | 69 | 23 | 2.0 | 7.0 | 0.00 | 0.00 | 0.00 | 73 | 1011.9 |
| 20260831012504 | 69 | 23 | 2.0 | 6.0 | 0.00 | 0.00 | 0.00 | 73 | 1011.9 |
| 20260831012004 | 69 | 45 | 1.0 | 5.0 | 0.00 | 0.00 | 0.00 | 73 | 1011.8 |
| 20260831011504 | 69 | 23 | 1.0 | 3.0 | 0.00 | 0.00 | 0.00 | 73 | 1011.8 |
| 20260831011025 | 69 | 23 | 3.0 | 7.0 | 0.00 | 0.00 | 0.00 | 72 | 1011.9 |
| 20260831010504 | 69 | 45 | 3.0 | 7.0 | 0.00 | 0.00 | 0.00 | 72 | 1012.0 |
| 20260831010004 | 70 | 23 | 3.0 | 6.0 | 0.00 | 0.00 | 0.00 | 71 | 1012.0 |
| 20260831005524 | 70 | 45 | 3.0 | 6.0 | 0.00 | 0.00 | 0.00 | 69 | 1011.9 |
| 20260831005004 | 70 | 23 | 2.0 | 6.0 | 0.00 | 0.00 | 0.00 | 69 | 1012.0 |
| 20260831004504 | 70 | 23 | 2.0 | 7.0 | 0.00 | 0.00 | 0.00 | 68 | 1012.0 |
| 20260831004024 | 70 | 23 | 2.0 | 6.0 | 0.00 | 0.00 | 0.00 | 66 | 1012.0 |
| 20260831003504 | 71 | 23 | 2.0 | 6.0 | 0.00 | 0.00 | 0.00 | 66 | 1012.0 |
| 20260831003004 | 71 | 23 | 2.0 | 5.0 | 0.00 | 0.00 | 0.00 | 65 | 1012.1 |
| 20260831002504 | 71 | 23 | 2.0 | 6.0 | 0.00 | 0.00 | 0.00 | 65 | 1012.1 |
| 20260831002004 | 71 | 45 | 3.0 | 7.0 | 0.00 | 0.00 | 0.00 | 65 | 1012.0 |
| 20260831001504 | 71 | 23 | 2.0 | 6.0 | 0.00 | 0.00 | 0.00 | 64 | 1012.2 |
| 20260831001004 | 72 | 23 | 2.0 | 6.0 | 0.00 | 0.00 | 0.00 | 63 | 1012.1 |
| 20260831000504 | 72 | 45 | 2.0 | 5.0 | 0.00 | 0.00 | 0.00 | 63 | 1012.1 |
| 20260831000004 | 73 | 23 | 2.0 | 9.0 | 0.00 | 0.00 | 0.00 | 62 | 1012.1 |
| 20260830235504 | 73 | 23 | 2.0 | 5.0 | 0.00 | 0.00 | 0.00 | 63 | 1012.1 |
| 20260830235024 | 72 | 23 | 2.0 | 5.0 | 0.00 | 0.00 | 0.00 | 63 | 1012.2 |
| 20260830234504 | 72 | 23 | 2.0 | 6.0 | 0.00 | 0.00 | 0.00 | 64 | 1012.2 |
| 20260830234004 | 72 | 45 | 2.0 | 6.0 | 0.00 | 0.00 | 0.00 | 63 | 1012.3 |
| 20260830233504 | 73 | 23 | 2.0 | 6.0 | 0.00 | 0.00 | 0.00 | 63 | 1012.1 |
| 20260830233004 | 73 | 45 | 1.0 | 6.0 | 0.00 | 0.00 | 0.00 | 64 | 1012.2 |
| 20260830232504 | 72 | 338 | 2.0 | 7.0 | 0.00 | 0.00 | 0.00 | 64 | 1012.1 |
| 20260830232024 | 72 | 45 | 2.0 | 6.0 | 0.00 | 0.00 | 0.00 | 65 | 1012.3 |
| 20260830231504 | 72 | 45 | 2.0 | 5.0 | 0.00 | 0.00 | 0.00 | 66 | 1012.3 |
| 20260830231004 | 72 | 23 | 2.0 | 4.0 | 0.00 | 0.00 | 0.00 | 66 | 1012.3 |
| 20260830230504 | 72 | 23 | 3.0 | 6.0 | 0.00 | 0.00 | 0.00 | 66 | 1012.3 |
| 20260830230009 | 71 | 45 | 2.0 | 4.0 | 0.00 | 0.00 | 0.00 | 66 | 1012.5 |
| 20260830225504 | 71 | 45 | 2.0 | 6.0 | 0.00 | 0.00 | 0.00 | 66 | 1012.5 |
| 20260830225004 | 71 | 23 | 2.0 | 7.0 | 0.00 | 0.00 | 0.00 | 66 | 1012.6 |
| 20260830224504 | 71 | 45 | 3.0 | 7.0 | 0.00 | 0.00 | 0.00 | 65 | 1012.5 |
| 20260830224004 | 72 | 23 | 2.0 | 5.0 | 0.00 | 0.00 | 0.00 | 66 | 1012.7 |
| 20260830223504 | 71 | 45 | 2.0 | 5.0 | 0.00 | 0.00 | 0.00 | 66 | 1012.7 |
| 20260830223004 | 71 | 45 | 2.0 | 7.0 | 0.00 | 0.00 | 0.00 | 66 | 1012.8 |
| 20260830222504 | 71 | 45 | 2.0 | 8.0 | 0.00 | 0.00 | 0.00 | 66 | 1012.8 |
| 20260830222004 | 71 | 45 | 2.0 | 6.0 | 0.00 | 0.00 | 0.00 | 66 | 1012.8 |
| 20260830221504 | 71 | 45 | 2.0 | 6.0 | 0.00 | 0.00 | 0.00 | 67 | 1012.8 |
| 20260830221004 | 71 | 23 | 2.0 | 6.0 | 0.00 | 0.00 | 0.00 | 67 | 1012.9 |
| 20260830220504 | 71 | 23 | 2.0 | 7.0 | 0.00 | 0.00 | 0.00 | 67 | 1012.9 |
| 20260830220004 | 71 | 45 | 2.0 | 7.0 | 0.00 | 0.00 | 0.00 | 67 | 1012.9 |
| 20260830215504 | 71 | 23 | 3.0 | 6.0 | 0.00 | 0.00 | 0.00 | 66 | 1013.1 |
| 20260830215024 | 71 | 23 | 2.0 | 8.0 | 0.00 | 0.00 | 0.00 | 67 | 1013.2 |
| 20260830214524 | 71 | 45 | 2.0 | 6.0 | 0.00 | 0.00 | 0.00 | 66 | 1013.2 |
| 20260830214004 | 71 | 45 | 2.0 | 6.0 | 0.00 | 0.00 | 0.00 | 66 | 1013.4 |
| 20260830213503 | 71 | 23 | 2.0 | 7.0 | 0.00 | 0.00 | 0.00 | 66 | 1013.5 |
| 20260830213004 | 71 | 45 | 2.0 | 5.0 | 0.00 | 0.00 | 0.00 | 66 | 1013.6 |
| 20260830212504 | 71 | 45 | 2.0 | 5.0 | 0.00 | 0.00 | 0.00 | 66 | 1013.6 |
| 20260830212003 | 71 | 45 | 3.0 | 7.0 | 0.00 | 0.00 | 0.00 | 66 | 1013.7 |
| 20260830211503 | 71 | 45 | 2.0 | 6.0 | 0.00 | 0.00 | 0.00 | 67 | 1013.8 |
| 20260830211004 | 71 | 45 | 2.0 | 6.0 | 0.00 | 0.00 | 0.00 | 67 | 1013.7 |
| 20260830210503 | 71 | 45 | 2.0 | 6.0 | 0.00 | 0.00 | 0.00 | 67 | 1013.8 |
| 20260830210004 | 71 | 45 | 2.0 | 5.0 | 0.00 | 0.00 | 0.00 | 66 | 1013.9 |
| 20260830205503 | 71 | 45 | 2.0 | 4.0 | 0.00 | 0.00 | 0.00 | 66 | 1013.9 |
| 20260830205004 | 71 | 45 | 2.0 | 6.0 | 0.00 | 0.00 | 0.00 | 66 | 1013.8 |
| 20260830204504 | 71 | 338 | 2.0 | 5.0 | 0.00 | 0.00 | 0.00 | 66 | 1013.7 |
| 20260830204003 | 71 | 45 | 2.0 | 5.0 | 0.00 | 0.00 | 0.00 | 67 | 1013.9 |
| 20260830203504 | 70 | 45 | 2.0 | 6.0 | 0.00 | 0.00 | 0.00 | 67 | 1013.9 |
| 20260830203003 | 70 | 23 | 2.0 | 6.0 | 0.00 | 0.00 | 0.00 | 68 | 1014.0 |
| 20260830202504 | 70 | 45 | 2.0 | 6.0 | 0.00 | 0.00 | 0.00 | 67 | 1014.0 |
| 20260830202024 | 70 | 45 | 2.0 | 5.0 | 0.00 | 0.00 | 0.00 | 68 | 1014.0 |
| 20260830201523 | 70 | 23 | 2.0 | 6.0 | 0.00 | 0.00 | 0.00 | 67 | 1014.1 |
| 20260830201003 | 70 | 45 | 2.0 | 6.0 | 0.00 | 0.00 | 0.00 | 67 | 1014.0 |